UAE216 KLAX-OMDB

Flight info

Callsign UAE216
Flight time N/A
Altitude 31000
Route OSHNN1 BEALE DCT EHK DCT OCS DCT KD90W DCT KP15A/N0498F330 DCT GABOV DCT ELVEL DCT 55N080W 5830N07000W DCT MIBNO/M086F350 DCT MAXAR DCT 63N050W 64N040W 6430N03000W 64N020W 63N010W DCT GUNPA/N0495F370 DCT ZOL DCT RADIS DCT KOSEB DCT PEROM DCT BINKA DCT ROVEK DCT AGALU DCT BABKO DCT ABULI DCT MEGIK DCT NIGEV DCT DINEN DCT ADORU UG80 EKI UN739 TUMER/N0489F390 UT38 VESAR DCT BALMA UR655 LEBOR R655 KTN R785 RASLI P559 TRF R23 NEVOL N318 TAMRO T503 KSA M321 RESAL T533 RAPMA DCT KUVSO DCT KATIT DCT PEKEM M628 RIGIL G783 ELUDA/N0473F350 G783 ASPED Q308 KIPOK Q568 IMPED
Aircraft A388/J-SADE2E3FGHIJ3J4J5M1RWXY/LB1D1

Departure

Time N/A
Airport Los Angeles International Airport (KLAX)

Arrival

Time 2026-05-05 20:34
Airport Dubai International Airport (OMDB)
Time Latitude Longitude Altitude Speed Heading
2026-05-05 15:59 43.45375 25.20123 36996 ft 512 kts 147°
2026-05-05 16:00 43.39303 25.25243 37004 ft 512 kts 147°
2026-05-05 16:00 43.33221 25.30361 37006 ft 513 kts 147°
2026-05-05 16:01 43.27122 25.35481 37015 ft 513 kts 147°
2026-05-05 16:01 43.21030 25.40584 37003 ft 513 kts 148°
2026-05-05 16:02 43.14936 25.45675 36997 ft 513 kts 148°
2026-05-05 16:02 43.08839 25.50757 36999 ft 513 kts 148°
2026-05-05 16:03 43.02739 25.55830 37000 ft 513 kts 148°
2026-05-05 16:03 42.96634 25.60894 36996 ft 514 kts 148°
2026-05-05 16:04 42.90533 25.65943 37009 ft 514 kts 148°
2026-05-05 16:04 42.84408 25.71002 37028 ft 515 kts 148°
2026-05-05 16:05 42.78280 25.76049 37026 ft 515 kts 148°
2026-05-05 16:05 42.73175 25.80246 37018 ft 515 kts 148°
2026-05-05 16:06 42.66032 25.86104 37033 ft 515 kts 148°
2026-05-05 16:06 42.60920 25.90286 37004 ft 515 kts 148°
2026-05-05 16:07 42.54778 25.95301 37009 ft 515 kts 148°
2026-05-05 16:07 42.48622 26.00332 37000 ft 516 kts 147°
2026-05-05 16:08 42.42695 26.05812 37027 ft 516 kts 144°
2026-05-05 16:08 42.36805 26.11383 37029 ft 516 kts 144°
2026-05-05 16:09 42.30929 26.16835 37033 ft 515 kts 145°
2026-05-05 16:09 42.25002 26.22292 37013 ft 515 kts 145°
2026-05-05 16:10 42.19074 26.27735 37012 ft 515 kts 145°
2026-05-05 16:10 42.13130 26.33181 37009 ft 515 kts 145°
2026-05-05 16:11 42.07214 26.38590 37016 ft 514 kts 145°
2026-05-05 16:12 41.95361 26.49389 37004 ft 516 kts 145°
2026-05-05 16:13 41.80565 26.63021 37033 ft 518 kts 143°
2026-05-05 16:13 41.74683 26.68626 37019 ft 519 kts 144°
2026-05-05 16:14 41.62868 26.79766 37028 ft 519 kts 144°
2026-05-05 16:15 41.51071 26.90824 37048 ft 519 kts 144°
2026-05-05 16:16 41.39245 27.01860 37040 ft 518 kts 144°
2026-05-05 16:17 41.30395 27.10088 37033 ft 516 kts 144°
2026-05-05 16:18 41.21535 27.18297 37038 ft 518 kts 144°
2026-05-05 16:19 41.12692 27.26459 37046 ft 518 kts 144°
2026-05-05 16:19 41.03805 27.34634 37051 ft 518 kts 144°
2026-05-05 16:20 40.91922 27.45545 37058 ft 520 kts 144°
2026-05-05 16:22 40.77172 27.59272 37072 ft 519 kts 144°
2026-05-05 16:23 40.65375 27.70174 37061 ft 519 kts 144°
2026-05-05 16:23 40.56494 27.78348 37064 ft 519 kts 144°
2026-05-05 16:24 40.50569 27.83787 37075 ft 519 kts 144°
2026-05-05 16:25 40.41685 27.91918 37074 ft 518 kts 144°
2026-05-05 16:25 40.32828 28.00000 37071 ft 519 kts 145°
2026-05-05 16:26 40.20956 28.10790 37073 ft 520 kts 145°
2026-05-05 16:27 40.15005 28.16181 37076 ft 520 kts 145°
2026-05-05 16:27 40.09036 28.21577 37081 ft 521 kts 145°
2026-05-05 16:28 40.03115 28.26918 37083 ft 521 kts 145°
2026-05-05 16:28 39.97138 28.32297 37068 ft 521 kts 145°
2026-05-05 16:29 39.91173 28.37655 37086 ft 521 kts 145°
2026-05-05 16:29 39.85187 28.43020 37078 ft 521 kts 145°
2026-05-05 16:30 39.79250 28.48329 37075 ft 521 kts 145°
2026-05-05 16:30 39.73278 28.53657 37070 ft 520 kts 146°
2026-05-05 16:31 39.67285 28.58994 37068 ft 521 kts 146°
2026-05-05 16:31 39.61307 28.64306 37069 ft 521 kts 146°
2026-05-05 16:32 39.55352 28.69586 37073 ft 521 kts 146°
2026-05-05 16:32 39.49332 28.74913 37074 ft 521 kts 146°
2026-05-05 16:33 39.43378 28.80169 37068 ft 521 kts 146°
2026-05-05 16:33 39.37383 28.85451 37070 ft 521 kts 146°
2026-05-05 16:34 39.31373 28.90735 37063 ft 521 kts 146°
2026-05-05 16:34 39.25380 28.95993 37072 ft 521 kts 146°
2026-05-05 16:35 39.19377 29.01249 37066 ft 521 kts 146°
2026-05-05 16:35 39.13416 29.06456 37062 ft 521 kts 146°
2026-05-05 16:36 39.07422 29.11682 37062 ft 520 kts 146°
2026-05-05 16:36 39.01420 29.16904 37059 ft 520 kts 146°
2026-05-05 16:37 38.95413 29.22118 37061 ft 520 kts 146°
2026-05-05 16:37 38.89392 29.27335 37457 ft 523 kts 146°
2026-05-05 16:38 38.86380 29.29940 37948 ft 521 kts 146°
2026-05-05 16:38 38.83378 29.32535 38412 ft 521 kts 147°
2026-05-05 16:38 38.80376 29.35126 38827 ft 520 kts 147°
2026-05-05 16:38 38.77370 29.37718 39030 ft 523 kts 147°
2026-05-05 16:39 38.71393 29.42892 39078 ft 514 kts 144°
2026-05-05 16:39 38.65968 29.48861 39056 ft 519 kts 134°
2026-05-05 16:40 38.61410 29.56008 39047 ft 520 kts 125°
2026-05-05 16:40 38.57188 29.63525 39053 ft 520 kts 125°
2026-05-05 16:41 38.52941 29.70999 39045 ft 519 kts 126°
2026-05-05 16:41 38.48680 29.78466 39045 ft 519 kts 126°
2026-05-05 16:42 38.44450 29.85861 39045 ft 519 kts 126°
2026-05-05 16:42 38.40185 29.93301 39045 ft 519 kts 126°
2026-05-05 16:43 38.35917 30.00731 39049 ft 519 kts 126°
2026-05-05 16:43 38.31641 30.08158 39046 ft 519 kts 126°
2026-05-05 16:44 38.27366 30.15568 39043 ft 520 kts 126°
2026-05-05 16:44 38.23103 30.22955 39049 ft 520 kts 126°
2026-05-05 16:45 38.18812 30.30365 39046 ft 521 kts 126°
2026-05-05 16:45 38.14505 30.37786 39066 ft 521 kts 126°
2026-05-05 16:46 38.10189 30.45205 39063 ft 521 kts 126°
2026-05-05 16:46 38.05890 30.52578 39055 ft 521 kts 126°
2026-05-05 16:47 38.01585 30.59945 39057 ft 521 kts 126°
2026-05-05 16:47 37.97262 30.67326 39041 ft 521 kts 126°
2026-05-05 16:48 37.92953 30.74690 39039 ft 520 kts 126°
2026-05-05 16:48 37.88635 30.82061 39045 ft 520 kts 127°
2026-05-05 16:49 37.84313 30.89418 39043 ft 521 kts 127°
2026-05-05 16:49 37.80002 30.96737 39031 ft 521 kts 127°
2026-05-05 16:50 37.75659 31.04097 39022 ft 522 kts 127°
2026-05-05 16:50 37.71312 31.11444 39016 ft 522 kts 127°
2026-05-05 16:51 37.66952 31.18799 39015 ft 523 kts 127°
2026-05-05 16:51 37.62615 31.26099 39024 ft 523 kts 127°
2026-05-05 16:52 37.58247 31.33433 39024 ft 523 kts 127°
2026-05-05 16:52 37.53879 31.40752 39020 ft 522 kts 127°
2026-05-05 16:53 37.49506 31.48063 39005 ft 522 kts 127°
2026-05-05 16:53 37.45130 31.55364 39013 ft 522 kts 127°
2026-05-05 16:54 37.40747 31.62659 39007 ft 522 kts 127°
2026-05-05 16:54 37.36396 31.69888 39011 ft 522 kts 127°
2026-05-05 16:55 37.32005 31.77153 39015 ft 522 kts 127°
2026-05-05 16:55 37.27600 31.84421 39014 ft 522 kts 128°
2026-05-05 16:56 37.23190 31.91684 39013 ft 523 kts 128°
2026-05-05 16:56 37.19527 31.97704 39021 ft 523 kts 128°
2026-05-05 16:57 37.15111 32.04949 39024 ft 523 kts 128°
2026-05-05 16:57 37.10685 32.12195 39014 ft 523 kts 128°
2026-05-05 16:58 37.06248 32.19443 39015 ft 522 kts 128°
2026-05-05 16:58 37.01822 32.26655 39027 ft 522 kts 128°
2026-05-05 16:59 36.97418 32.33818 39030 ft 522 kts 128°
2026-05-05 16:59 36.92988 32.41009 39022 ft 522 kts 129°
2026-05-05 17:00 36.88550 32.48195 39028 ft 521 kts 129°
2026-05-05 17:00 36.84115 32.55367 39019 ft 521 kts 129°
2026-05-05 17:01 36.79684 32.62522 39034 ft 521 kts 129°
2026-05-05 17:01 36.75250 32.69666 39030 ft 520 kts 129°
2026-05-05 17:02 36.70844 32.76749 39009 ft 520 kts 129°
2026-05-05 17:02 36.66399 32.83878 39007 ft 521 kts 129°
2026-05-05 17:03 36.61945 32.91009 39001 ft 522 kts 129°
2026-05-05 17:03 36.57475 32.98149 39000 ft 522 kts 129°
2026-05-05 17:04 36.53002 33.05279 38996 ft 523 kts 129°
2026-05-05 17:04 36.48515 33.12416 38996 ft 523 kts 129°
2026-05-05 17:05 36.44055 33.19495 38994 ft 523 kts 129°
2026-05-05 17:05 36.39565 33.26607 38985 ft 522 kts 130°
2026-05-05 17:06 36.35078 33.33695 38981 ft 522 kts 130°
2026-05-05 17:06 36.30584 33.40766 38977 ft 522 kts 130°
2026-05-05 17:07 36.26083 33.47838 38952 ft 522 kts 130°
2026-05-05 17:07 36.21579 33.54900 38961 ft 522 kts 130°
2026-05-05 17:08 36.17092 33.61918 38966 ft 523 kts 130°
2026-05-05 17:08 36.12569 33.68982 38970 ft 523 kts 130°
2026-05-05 17:09 36.08042 33.76039 38970 ft 523 kts 131°
2026-05-05 17:09 36.03509 33.83086 38968 ft 523 kts 131°
2026-05-05 17:10 35.99002 33.90079 38970 ft 523 kts 131°
2026-05-05 17:10 35.94387 33.97024 38976 ft 521 kts 136°
2026-05-05 17:11 35.89088 34.03018 38979 ft 515 kts 146°
2026-05-05 17:11 35.83127 34.07828 38979 ft 511 kts 153°
2026-05-05 17:12 35.76999 34.12302 38982 ft 512 kts 153°
2026-05-05 17:12 35.70885 34.16790 38988 ft 512 kts 153°
2026-05-05 17:13 35.64766 34.21271 38989 ft 512 kts 153°
2026-05-05 17:13 35.58666 34.25729 38964 ft 513 kts 153°
2026-05-05 17:14 35.52521 34.30209 38972 ft 514 kts 153°
2026-05-05 17:14 35.46344 34.34704 38985 ft 515 kts 153°
2026-05-05 17:15 35.40173 34.39188 38994 ft 516 kts 153°
2026-05-05 17:15 35.34021 34.43650 39011 ft 517 kts 153°
2026-05-05 17:16 35.27818 34.48142 39007 ft 517 kts 154°
2026-05-05 17:16 35.21614 34.52626 39011 ft 517 kts 154°
2026-05-05 17:17 35.15417 34.57096 39011 ft 517 kts 154°
2026-05-05 17:17 35.09212 34.61564 39006 ft 516 kts 154°
2026-05-05 17:18 35.03024 34.66014 38995 ft 516 kts 154°
2026-05-05 17:18 34.96883 34.70419 38993 ft 516 kts 154°
2026-05-05 17:19 34.90690 34.74855 38998 ft 516 kts 154°
2026-05-05 17:19 34.84502 34.79279 39003 ft 516 kts 154°
2026-05-05 17:20 34.78300 34.83706 38992 ft 516 kts 155°
2026-05-05 17:20 34.72104 34.88122 39005 ft 516 kts 155°
2026-05-05 17:21 34.65898 34.92535 39009 ft 516 kts 155°
2026-05-05 17:22 34.56618 34.99121 39018 ft 517 kts 155°
2026-05-05 17:22 34.50779 35.04324 39007 ft 529 kts 139°
2026-05-05 17:22 34.48412 35.07770 39015 ft 536 kts 128°
2026-05-05 17:23 34.46544 35.11639 39013 ft 542 kts 118°
2026-05-05 17:23 34.43994 35.20284 39015 ft 546 kts 111°
2026-05-05 17:24 34.41578 35.29003 39017 ft 546 kts 111°
2026-05-05 17:24 34.39139 35.37722 39032 ft 546 kts 111°
2026-05-05 17:25 34.36697 35.46423 39039 ft 546 kts 111°
2026-05-05 17:25 34.34249 35.55125 39054 ft 546 kts 112°
2026-05-05 17:26 34.31797 35.63825 39053 ft 545 kts 111°
2026-05-05 17:26 34.30069 35.72733 39057 ft 549 kts 99°
2026-05-05 17:27 34.29521 35.81951 39044 ft 549 kts 94°
2026-05-05 17:27 34.29117 35.91167 39060 ft 549 kts 95°
2026-05-05 17:28 34.28691 36.00401 39058 ft 549 kts 95°
2026-05-05 17:28 34.28345 36.09616 39043 ft 548 kts 94°
2026-05-05 17:29 34.28040 36.18821 39046 ft 548 kts 94°
2026-05-05 17:29 34.27715 36.27966 39014 ft 548 kts 94°
2026-05-05 17:30 34.27375 36.37192 38996 ft 549 kts 94°
2026-05-05 17:30 34.27025 36.46448 39016 ft 551 kts 94°
2026-05-05 17:31 34.26667 36.55742 38991 ft 553 kts 95°
2026-05-05 17:31 34.26174 36.64961 38997 ft 553 kts 97°
2026-05-05 17:32 34.25412 36.74230 39010 ft 554 kts 98°
2026-05-05 17:32 34.24675 36.83530 38984 ft 557 kts 97°
2026-05-05 17:33 34.23955 36.92876 38997 ft 559 kts 97°
2026-05-05 17:33 34.23233 37.02230 38995 ft 559 kts 97°
2026-05-05 17:34 34.22497 37.11590 39012 ft 559 kts 99°
2026-05-05 17:34 34.21736 37.16171 39007 ft 554 kts 110°
2026-05-05 17:34 34.20348 37.20484 39026 ft 548 kts 121°
2026-05-05 17:34 34.18412 37.24403 38984 ft 540 kts 132°
2026-05-05 17:35 34.16052 37.27815 39018 ft 530 kts 141°
2026-05-05 17:35 34.10287 37.33009 39016 ft 509 kts 160°
2026-05-05 17:36 34.03956 37.36767 39010 ft 507 kts 161°
2026-05-05 17:36 33.97643 37.40549 39010 ft 506 kts 161°
2026-05-05 17:37 33.91321 37.44316 39005 ft 506 kts 161°
2026-05-05 17:37 33.84996 37.48073 38980 ft 506 kts 162°
2026-05-05 17:38 33.78713 37.51797 38995 ft 507 kts 162°
2026-05-05 17:38 33.72382 37.55542 38995 ft 507 kts 162°
2026-05-05 17:39 33.66044 37.59285 38997 ft 507 kts 162°
2026-05-05 17:39 33.59709 37.63023 38994 ft 506 kts 162°
2026-05-05 17:40 33.53381 37.66739 38996 ft 506 kts 162°
2026-05-05 17:40 33.47031 37.70383 38996 ft 506 kts 163°
2026-05-05 17:41 33.40731 37.73990 39003 ft 505 kts 163°
2026-05-05 17:41 33.34385 37.77604 39004 ft 503 kts 163°
2026-05-05 17:42 33.28103 37.81175 39008 ft 502 kts 163°
2026-05-05 17:42 33.21811 37.84749 39000 ft 501 kts 163°
2026-05-05 17:43 33.15506 37.88325 38996 ft 500 kts 163°
2026-05-05 17:43 33.09223 37.91884 39002 ft 498 kts 164°
2026-05-05 17:44 33.02965 37.95424 38990 ft 497 kts 164°
2026-05-05 17:44 32.96723 37.98949 39017 ft 495 kts 165°
2026-05-05 17:45 32.90557 38.02496 39012 ft 495 kts 163°
2026-05-05 17:45 32.84392 38.06185 38977 ft 495 kts 163°
2026-05-05 17:46 32.78259 38.09850 39002 ft 493 kts 163°
2026-05-05 17:46 32.72122 38.13498 38999 ft 493 kts 163°
2026-05-05 17:47 32.67014 38.16526 39000 ft 493 kts 163°
2026-05-05 17:47 32.60864 38.20167 38998 ft 492 kts 164°
2026-05-05 17:48 32.53750 38.24372 39000 ft 491 kts 163°
2026-05-05 17:48 32.48622 38.27397 39001 ft 491 kts 163°
2026-05-05 17:49 32.42528 38.30987 39002 ft 491 kts 164°
2026-05-05 17:49 32.36395 38.34596 38999 ft 492 kts 164°
2026-05-05 17:50 32.30296 38.38179 38963 ft 492 kts 164°
2026-05-05 17:50 32.24174 38.41771 39014 ft 490 kts 164°
2026-05-05 17:51 32.18060 38.45351 39014 ft 490 kts 164°
2026-05-05 17:51 32.11948 38.48926 39014 ft 490 kts 164°
2026-05-05 17:52 32.05840 38.52492 39012 ft 490 kts 164°
2026-05-05 17:52 31.99735 38.56053 39020 ft 488 kts 164°
2026-05-05 17:53 31.93647 38.59597 39013 ft 488 kts 164°
2026-05-05 17:53 31.87558 38.63138 39004 ft 487 kts 164°
2026-05-05 17:54 31.81485 38.66669 38996 ft 485 kts 164°
2026-05-05 17:54 31.75475 38.70159 39006 ft 484 kts 164°
2026-05-05 17:55 31.69448 38.73702 38995 ft 486 kts 161°
2026-05-05 17:55 31.63615 38.77852 39004 ft 490 kts 159°
2026-05-05 17:56 31.57811 38.82036 39003 ft 489 kts 159°
2026-05-05 17:56 31.52000 38.86204 39001 ft 489 kts 159°
2026-05-05 17:57 31.46197 38.90359 38989 ft 487 kts 159°
2026-05-05 17:57 31.40416 38.94493 39011 ft 487 kts 159°
2026-05-05 17:58 31.34665 38.98598 39015 ft 487 kts 159°
2026-05-05 17:58 31.28867 39.02731 39014 ft 487 kts 159°
2026-05-05 17:59 31.23075 39.06855 39018 ft 487 kts 159°
2026-05-05 17:59 31.17281 39.10974 39015 ft 486 kts 159°
2026-05-05 18:00 31.11543 39.15048 39022 ft 485 kts 159°
2026-05-05 18:00 31.05759 39.19148 39027 ft 485 kts 159°
2026-05-05 18:01 30.99986 39.23234 39032 ft 485 kts 159°
2026-05-05 18:01 30.94200 39.27324 39031 ft 485 kts 159°
2026-05-05 18:02 30.88466 39.31372 39003 ft 485 kts 159°
2026-05-05 18:02 30.82705 39.35434 39023 ft 484 kts 159°
2026-05-05 18:03 30.76935 39.39495 39026 ft 484 kts 159°
2026-05-05 18:03 30.71158 39.43555 39041 ft 485 kts 159°
2026-05-05 18:04 30.65381 39.47610 39043 ft 485 kts 159°
2026-05-05 18:04 30.59638 39.51635 39005 ft 485 kts 159°
2026-05-05 18:05 30.53870 39.55673 39040 ft 484 kts 159°
2026-05-05 18:05 30.48101 39.59706 39044 ft 484 kts 160°
2026-05-05 18:06 30.42524 39.64307 39045 ft 500 kts 150°
2026-05-05 18:06 30.37593 39.70179 39048 ft 517 kts 139°
2026-05-05 18:07 30.33286 39.76884 39044 ft 522 kts 136°
2026-05-05 18:07 30.28955 39.83638 39047 ft 521 kts 137°
2026-05-05 18:08 30.24615 39.90364 39045 ft 522 kts 137°
2026-05-05 18:08 30.20274 39.97083 39043 ft 521 kts 137°
2026-05-05 18:09 30.15959 40.03749 39019 ft 521 kts 137°
2026-05-05 18:09 30.11616 40.10450 39036 ft 521 kts 137°
2026-05-05 18:10 30.07261 40.17156 39040 ft 522 kts 137°
2026-05-05 18:10 30.02900 40.23862 39045 ft 522 kts 137°
2026-05-05 18:11 29.98535 40.30565 39036 ft 522 kts 138°
2026-05-05 18:11 29.94164 40.37268 39036 ft 522 kts 138°
2026-05-05 18:12 29.89796 40.43957 39033 ft 522 kts 138°
2026-05-05 18:12 29.85443 40.50611 39021 ft 523 kts 138°
2026-05-05 18:13 29.81059 40.57302 39025 ft 523 kts 138°
2026-05-05 18:13 29.76690 40.64026 39033 ft 528 kts 135°
2026-05-05 18:14 29.72758 40.71261 39034 ft 534 kts 132°
2026-05-05 18:14 29.68887 40.78476 39025 ft 533 kts 132°
2026-05-05 18:15 29.64967 40.85741 39026 ft 534 kts 133°
2026-05-05 18:15 29.61042 40.93006 39000 ft 533 kts 133°
2026-05-05 18:16 29.57130 41.00233 39018 ft 532 kts 133°
2026-05-05 18:16 29.53237 41.07411 39016 ft 532 kts 133°
2026-05-05 18:17 29.49318 41.14623 38996 ft 532 kts 133°
2026-05-05 18:17 29.45396 41.21830 39001 ft 532 kts 133°
2026-05-05 18:18 29.41474 41.29024 39014 ft 532 kts 133°
2026-05-05 18:18 29.37550 41.36210 38997 ft 531 kts 133°
2026-05-05 18:19 29.33624 41.43387 39001 ft 531 kts 133°
2026-05-05 18:19 29.29689 41.50570 38995 ft 532 kts 133°
2026-05-05 18:20 29.25778 41.57700 38979 ft 532 kts 133°
2026-05-05 18:20 29.21834 41.64874 38979 ft 532 kts 133°
2026-05-05 18:21 29.17887 41.72042 38986 ft 533 kts 133°
2026-05-05 18:21 29.13924 41.79229 38967 ft 533 kts 133°
2026-05-05 18:22 29.09962 41.86399 38979 ft 533 kts 133°
2026-05-05 18:22 29.06017 41.93526 38985 ft 534 kts 133°
2026-05-05 18:23 29.02040 42.00696 38948 ft 534 kts 133°
2026-05-05 18:23 28.98052 42.07871 38969 ft 535 kts 133°
2026-05-05 18:24 28.94042 42.15074 38977 ft 536 kts 133°
2026-05-05 18:24 28.90063 42.22212 38966 ft 537 kts 133°
2026-05-05 18:25 28.86037 42.29419 38969 ft 538 kts 133°
2026-05-05 18:25 28.81999 42.36635 38984 ft 539 kts 133°
2026-05-05 18:26 28.77976 42.43814 38981 ft 538 kts 133°
2026-05-05 18:26 28.73930 42.51020 38979 ft 538 kts 133°
2026-05-05 18:27 28.69891 42.58203 38978 ft 538 kts 133°
2026-05-05 18:27 28.65869 42.65319 38979 ft 534 kts 134°
2026-05-05 18:28 28.58841 42.74800 38963 ft 516 kts 144°
2026-05-05 18:28 28.53944 42.80796 38955 ft 516 kts 144°
2026-05-05 18:29 28.49077 42.86767 38952 ft 516 kts 144°
2026-05-05 18:29 28.44191 42.92752 38948 ft 516 kts 144°
2026-05-05 18:30 28.39302 42.98729 38953 ft 515 kts 144°
2026-05-05 18:30 28.34414 43.04695 38962 ft 515 kts 144°
2026-05-05 18:31 28.29568 43.10602 38944 ft 515 kts 144°
2026-05-05 18:31 28.24677 43.16555 38939 ft 515 kts 144°
2026-05-05 18:32 28.19786 43.22500 38933 ft 515 kts 144°
2026-05-05 18:32 28.14894 43.28438 38941 ft 514 kts 144°
2026-05-05 18:33 28.10021 43.34344 38944 ft 514 kts 144°
2026-05-05 18:33 28.05150 43.40239 38938 ft 514 kts 144°
2026-05-05 18:34 28.00259 43.46150 38928 ft 513 kts 143°
2026-05-05 18:34 27.95370 43.52050 38924 ft 514 kts 143°
2026-05-05 18:35 27.90468 43.57956 38925 ft 514 kts 143°
2026-05-05 18:35 27.85599 43.63816 38908 ft 514 kts 143°
2026-05-05 18:36 27.80546 43.69445 38913 ft 509 kts 147°
2026-05-05 18:36 27.76306 43.74056 38915 ft 509 kts 147°
2026-05-05 18:37 27.71197 43.79618 38917 ft 510 kts 147°
2026-05-05 18:37 27.66086 43.85171 38909 ft 509 kts 147°
2026-05-05 18:38 27.60976 43.90714 38911 ft 509 kts 147°
2026-05-05 18:38 27.55869 43.96245 38909 ft 509 kts 147°
2026-05-05 18:39 27.50757 44.01774 38907 ft 509 kts 147°
2026-05-05 18:39 27.45676 44.07264 38897 ft 509 kts 147°
2026-05-05 18:40 27.40559 44.12783 38904 ft 509 kts 147°
2026-05-05 18:40 27.35441 44.18297 38899 ft 509 kts 147°
2026-05-05 18:41 27.30320 44.23807 38884 ft 509 kts 147°
2026-05-05 18:41 27.25202 44.29306 38883 ft 509 kts 147°
2026-05-05 18:42 27.20082 44.34800 38889 ft 509 kts 147°
2026-05-05 18:42 27.14985 44.40263 38885 ft 509 kts 147°
2026-05-05 18:43 27.09850 44.45771 38871 ft 509 kts 147°
2026-05-05 18:43 27.04722 44.51264 38873 ft 510 kts 147°
2026-05-05 18:44 26.99585 44.56758 38873 ft 511 kts 147°
2026-05-05 18:44 26.94438 44.62250 38863 ft 511 kts 147°
2026-05-05 18:45 26.89306 44.67713 38858 ft 512 kts 147°
2026-05-05 18:45 26.84129 44.73219 38864 ft 513 kts 147°
2026-05-05 18:46 26.78945 44.78727 38872 ft 514 kts 147°
2026-05-05 18:46 26.73770 44.84214 38880 ft 515 kts 147°
2026-05-05 18:47 26.68546 44.89736 38882 ft 515 kts 147°
2026-05-05 18:47 26.63334 44.95240 38885 ft 515 kts 147°
2026-05-05 18:48 26.58155 45.00702 38857 ft 515 kts 147°
2026-05-05 18:48 26.52948 45.06191 38871 ft 513 kts 147°
2026-05-05 18:49 26.47750 45.11662 38866 ft 513 kts 147°
2026-05-05 18:49 26.42561 45.17117 38863 ft 512 kts 147°
2026-05-05 18:50 26.37408 45.22527 38860 ft 512 kts 147°
2026-05-05 18:50 26.32219 45.27966 38861 ft 511 kts 147°
2026-05-05 18:51 26.27036 45.33401 38864 ft 512 kts 146°
2026-05-05 18:51 26.21851 45.38850 38862 ft 512 kts 146°
2026-05-05 18:52 26.16659 45.44296 38866 ft 513 kts 146°
2026-05-05 18:52 26.11453 45.49752 38872 ft 514 kts 146°
2026-05-05 18:53 26.06241 45.55208 38874 ft 514 kts 146°
2026-05-05 18:53 26.01067 45.60616 38877 ft 514 kts 146°
2026-05-05 18:54 25.95852 45.66060 38883 ft 514 kts 146°
2026-05-05 18:54 25.90623 45.71512 38883 ft 514 kts 146°
2026-05-05 18:55 25.85396 45.76954 38886 ft 514 kts 146°
2026-05-05 18:55 25.80211 45.82345 38888 ft 514 kts 146°
2026-05-05 18:56 25.74991 45.87766 38880 ft 513 kts 146°
2026-05-05 18:56 25.69795 45.93153 38879 ft 513 kts 146°
2026-05-05 18:57 25.64584 45.98550 38876 ft 512 kts 146°
2026-05-05 18:57 25.59370 46.03943 38883 ft 512 kts 146°
2026-05-05 18:58 25.54168 46.09317 38882 ft 511 kts 146°
2026-05-05 18:58 25.48968 46.14682 38883 ft 511 kts 146°
2026-05-05 18:59 25.43766 46.20042 38888 ft 510 kts 146°
2026-05-05 18:59 25.38572 46.25388 38876 ft 509 kts 146°
2026-05-05 19:00 25.33417 46.30687 38880 ft 509 kts 146°
2026-05-05 19:00 25.28233 46.36009 38893 ft 508 kts 145°
2026-05-05 19:01 25.23053 46.41320 38887 ft 508 kts 145°
2026-05-05 19:01 25.17863 46.46636 38893 ft 507 kts 145°
2026-05-05 19:02 25.12680 46.51937 38879 ft 507 kts 145°
2026-05-05 19:02 25.07510 46.57220 38906 ft 506 kts 145°
2026-05-05 19:03 25.02321 46.62469 38900 ft 504 kts 148°
2026-05-05 19:03 24.96724 46.66952 38898 ft 492 kts 157°
2026-05-05 19:04 24.90709 46.70366 38908 ft 482 kts 165°
2026-05-05 19:04 24.84567 46.73219 38905 ft 482 kts 165°
2026-05-05 19:05 24.78393 46.76122 38901 ft 483 kts 165°
2026-05-05 19:05 24.72203 46.79029 38892 ft 482 kts 164°
2026-05-05 19:06 24.66010 46.81932 38886 ft 483 kts 164°
2026-05-05 19:06 24.59868 46.84808 38874 ft 483 kts 164°
2026-05-05 19:07 24.53670 46.87707 38869 ft 483 kts 164°
2026-05-05 19:07 24.47476 46.90601 38858 ft 483 kts 164°
2026-05-05 19:08 24.41325 46.93472 38861 ft 483 kts 164°
2026-05-05 19:08 24.35140 46.96356 38866 ft 483 kts 164°
2026-05-05 19:09 24.28952 46.99237 38851 ft 483 kts 164°
2026-05-05 19:09 24.22767 47.02115 38849 ft 483 kts 164°
2026-05-05 19:10 24.16603 47.05076 38836 ft 488 kts 159°
2026-05-05 19:10 24.11029 47.09482 38847 ft 504 kts 142°
2026-05-05 19:11 24.06655 47.15598 38840 ft 518 kts 127°
2026-05-05 19:11 24.02868 47.22299 38848 ft 518 kts 128°
2026-05-05 19:12 23.99043 47.28980 38859 ft 517 kts 128°
2026-05-05 19:12 23.95245 47.35606 38865 ft 517 kts 128°
2026-05-05 19:13 23.91422 47.42268 38867 ft 517 kts 128°
2026-05-05 19:13 23.87593 47.48935 38834 ft 517 kts 128°
2026-05-05 19:14 23.83764 47.55592 38841 ft 516 kts 128°
2026-05-05 19:14 23.79939 47.62234 38835 ft 516 kts 128°
2026-05-05 19:15 23.76138 47.68825 38822 ft 516 kts 128°
2026-05-05 19:15 23.72305 47.75462 38820 ft 515 kts 128°
2026-05-05 19:16 23.68483 47.82072 38815 ft 515 kts 127°
2026-05-05 19:16 23.64678 47.88644 38815 ft 514 kts 127°
2026-05-05 19:17 23.60852 47.95245 38803 ft 514 kts 127°
2026-05-05 19:17 23.57016 48.01853 38787 ft 514 kts 127°
2026-05-05 19:18 23.53195 48.08426 38804 ft 513 kts 127°
2026-05-05 19:18 23.49393 48.14959 38792 ft 512 kts 127°
2026-05-05 19:19 23.45566 48.21526 38793 ft 512 kts 127°
2026-05-05 19:19 23.41783 48.28044 38787 ft 513 kts 124°
2026-05-05 19:20 23.38960 48.35228 38792 ft 521 kts 109°
2026-05-05 19:20 23.37839 48.43048 38786 ft 527 kts 95°
2026-05-05 19:21 23.37552 48.51027 38774 ft 527 kts 95°
2026-05-05 19:21 23.37225 48.58955 38775 ft 527 kts 95°
2026-05-05 19:22 23.36892 48.66932 38774 ft 528 kts 95°
2026-05-05 19:22 23.36557 48.74927 38782 ft 528 kts 95°
2026-05-05 19:23 23.36219 48.82907 38781 ft 528 kts 95°
2026-05-05 19:23 23.35877 48.90887 38788 ft 527 kts 95°
2026-05-05 19:24 23.35531 48.98864 38785 ft 527 kts 95°
2026-05-05 19:24 23.35119 49.06772 38778 ft 525 kts 98°
2026-05-05 19:25 23.34026 49.14615 38771 ft 524 kts 102°
2026-05-05 19:25 23.32903 49.22443 38771 ft 524 kts 101°
2026-05-05 19:26 23.31971 49.28963 38770 ft 524 kts 101°
2026-05-05 19:26 23.30655 49.38091 38761 ft 525 kts 102°
2026-05-05 19:27 23.29699 49.44685 38770 ft 526 kts 102°
2026-05-05 19:27 23.28562 49.52504 38796 ft 525 kts 101°
2026-05-05 19:28 23.27415 49.60361 38786 ft 525 kts 101°
2026-05-05 19:28 23.26265 49.68215 38783 ft 525 kts 101°
2026-05-05 19:29 23.25112 49.76054 38781 ft 525 kts 101°
2026-05-05 19:29 23.23963 49.83843 38784 ft 524 kts 101°
2026-05-05 19:30 23.22802 49.91688 38784 ft 524 kts 102°
2026-05-05 19:30 23.21640 49.99511 38773 ft 524 kts 101°
2026-05-05 19:31 23.20476 50.07316 38794 ft 523 kts 101°
2026-05-05 19:31 23.19317 50.15066 38790 ft 522 kts 101°
2026-05-05 19:32 23.18148 50.22849 38785 ft 522 kts 101°
2026-05-05 19:32 23.16976 50.30634 38784 ft 521 kts 102°
2026-05-05 19:33 23.15799 50.38420 38781 ft 521 kts 102°
2026-05-05 19:33 23.14628 50.46142 38776 ft 521 kts 102°
2026-05-05 19:34 23.13445 50.53909 38778 ft 521 kts 102°
2026-05-05 19:35 23.11664 50.65568 38789 ft 520 kts 102°
2026-05-05 19:35 23.10473 50.73324 38788 ft 521 kts 102°
2026-05-05 19:36 23.09279 50.81079 38788 ft 521 kts 102°
2026-05-05 19:36 23.08086 50.88801 38792 ft 521 kts 102°
2026-05-05 19:37 23.06882 50.96567 38788 ft 521 kts 102°
2026-05-05 19:37 23.05674 51.04336 38788 ft 521 kts 102°
2026-05-05 19:38 23.04461 51.12107 38784 ft 521 kts 102°
2026-05-05 19:38 23.03248 51.19855 38798 ft 520 kts 102°
2026-05-05 19:39 23.02039 51.27549 38797 ft 520 kts 102°
2026-05-05 19:39 23.00819 51.35284 38793 ft 519 kts 102°
2026-05-05 19:40 22.99598 51.43006 38786 ft 519 kts 102°
2026-05-05 19:40 22.98373 51.50732 38785 ft 519 kts 102°
2026-05-05 19:41 22.97152 51.58404 38779 ft 519 kts 102°
2026-05-05 19:41 22.95919 51.66128 38784 ft 519 kts 102°
2026-05-05 19:42 22.94682 51.73846 38789 ft 519 kts 102°
2026-05-05 19:42 22.93441 51.81568 38790 ft 520 kts 102°
2026-05-05 19:43 22.92194 51.89302 38786 ft 520 kts 102°
2026-05-05 19:43 22.90950 51.96997 38789 ft 520 kts 102°
2026-05-05 19:44 22.89694 52.04736 38788 ft 520 kts 102°
2026-05-05 19:44 22.88434 52.12477 38787 ft 521 kts 102°
2026-05-05 19:45 22.87171 52.20213 38791 ft 521 kts 102°
2026-05-05 19:45 22.85910 52.27912 38805 ft 520 kts 102°
2026-05-05 19:46 22.84643 52.35625 38794 ft 520 kts 102°
2026-05-05 19:46 22.83376 52.43329 38788 ft 519 kts 102°
2026-05-05 19:47 22.82376 52.51078 38786 ft 521 kts 95°
2026-05-05 19:47 22.82189 52.58929 38783 ft 521 kts 93°
2026-05-05 19:48 22.81992 52.66787 38783 ft 521 kts 93°
2026-05-05 19:48 22.81785 52.74638 38783 ft 521 kts 93°
2026-05-05 19:49 22.81574 52.82511 38782 ft 522 kts 93°
2026-05-05 19:49 22.81360 52.90371 38783 ft 522 kts 94°
2026-05-05 19:50 22.81143 52.98210 38785 ft 522 kts 94°
2026-05-05 19:50 22.80922 53.06064 38796 ft 522 kts 94°
2026-05-05 19:51 22.80697 53.13920 38793 ft 521 kts 94°
2026-05-05 19:51 22.80468 53.21778 38789 ft 521 kts 94°
2026-05-05 19:52 22.80236 53.29629 38780 ft 521 kts 94°
2026-05-05 19:52 22.79999 53.37472 38779 ft 521 kts 94°
2026-05-05 19:53 22.79761 53.45265 38782 ft 521 kts 94°
2026-05-05 19:53 22.79517 53.53111 38784 ft 521 kts 94°
2026-05-05 19:54 22.79269 53.60965 38780 ft 521 kts 94°
2026-05-05 19:54 22.79018 53.68812 38782 ft 521 kts 94°
2026-05-05 19:55 22.78762 53.76652 38777 ft 521 kts 94°
2026-05-05 19:55 22.78503 53.84505 38782 ft 521 kts 94°
2026-05-05 19:56 22.78239 53.92363 38805 ft 521 kts 94°
2026-05-05 19:56 22.78397 54.00233 38791 ft 522 kts 85°
2026-05-05 19:57 22.79720 54.07931 38780 ft 523 kts 78°
2026-05-05 19:57 22.81295 54.15628 38777 ft 523 kts 78°
2026-05-05 19:58 22.82853 54.23335 38776 ft 523 kts 78°
2026-05-05 19:58 22.84411 54.31042 38774 ft 523 kts 78°
2026-05-05 19:59 22.85958 54.38700 38775 ft 523 kts 78°
2026-05-05 19:59 22.87513 54.46423 38778 ft 523 kts 78°
2026-05-05 20:00 22.89062 54.54136 38775 ft 523 kts 78°
2026-05-05 20:00 22.90608 54.61853 38775 ft 524 kts 78°
2026-05-05 20:01 22.92154 54.69585 38774 ft 524 kts 78°
2026-05-05 20:01 22.93694 54.77314 38776 ft 524 kts 78°
2026-05-05 20:02 22.95230 54.85041 38777 ft 525 kts 78°
2026-05-05 20:02 22.96758 54.92752 38789 ft 525 kts 78°
2026-05-05 20:03 22.98288 55.00488 38790 ft 525 kts 79°
2026-05-05 20:03 22.99817 55.08243 38790 ft 525 kts 78°
2026-05-05 20:04 23.02105 55.15742 38790 ft 525 kts 62°
2026-05-05 20:04 23.06429 55.22015 38787 ft 522 kts 42°
2026-05-05 20:05 23.12341 55.26499 38786 ft 517 kts 23°
2026-05-05 20:05 23.19135 55.28932 38782 ft 512 kts 12°
2026-05-05 20:06 23.26026 55.30952 38791 ft 513 kts 12°
2026-05-05 20:06 23.32869 55.32976 38795 ft 513 kts 12°
2026-05-05 20:07 23.39770 55.35016 38792 ft 513 kts 12°
2026-05-05 20:07 23.43211 55.36033 38646 ft 509 kts 12°
2026-05-05 20:07 23.46615 55.37041 38411 ft 505 kts 12°
2026-05-05 20:07 23.50012 55.38046 38151 ft 505 kts 12°
2026-05-05 20:08 23.53364 55.39037 37897 ft 505 kts 12°
2026-05-05 20:08 23.56759 55.40041 37627 ft 506 kts 12°
2026-05-05 20:08 23.60168 55.41048 37373 ft 507 kts 12°
2026-05-05 20:08 23.63569 55.42055 36993 ft 506 kts 12°
2026-05-05 20:09 23.66972 55.43063 36257 ft 508 kts 12°
2026-05-05 20:09 23.70403 55.44079 35334 ft 512 kts 12°
2026-05-05 20:09 23.73860 55.45102 34287 ft 518 kts 12°
2026-05-05 20:09 23.77371 55.46143 33374 ft 520 kts 12°
2026-05-05 20:10 23.80847 55.47178 32736 ft 514 kts 12°
2026-05-05 20:10 23.84264 55.48196 32302 ft 504 kts 12°
2026-05-05 20:10 23.87592 55.49187 31689 ft 499 kts 12°
2026-05-05 20:10 23.90922 55.50175 31065 ft 494 kts 12°
2026-05-05 20:11 23.94231 55.51157 30466 ft 489 kts 12°
2026-05-05 20:11 23.97506 55.52179 29846 ft 486 kts 16°
2026-05-05 20:11 24.00592 55.53658 29182 ft 485 kts 26°
2026-05-05 20:11 24.03424 55.55659 28576 ft 483 kts 35°
2026-05-05 20:12 24.05945 55.58060 27963 ft 478 kts 40°
2026-05-05 20:12 24.08395 55.60501 27341 ft 473 kts 40°
2026-05-05 20:12 24.10816 55.62895 26741 ft 467 kts 40°
2026-05-05 20:12 24.13225 55.65273 26133 ft 463 kts 40°
2026-05-05 20:13 24.15576 55.67598 25546 ft 458 kts 40°
2026-05-05 20:13 24.17929 55.69929 24935 ft 454 kts 40°
2026-05-05 20:13 24.20259 55.72241 24327 ft 450 kts 40°
2026-05-05 20:13 24.22572 55.74538 23724 ft 446 kts 40°
2026-05-05 20:14 24.24870 55.76821 22912 ft 445 kts 40°
2026-05-05 20:14 24.27158 55.79094 22237 ft 441 kts 41°
2026-05-05 20:14 24.28647 55.80577 21959 ft 433 kts 41°
2026-05-05 20:14 24.30852 55.82772 21456 ft 425 kts 41°
2026-05-05 20:15 24.33032 55.84942 20864 ft 420 kts 41°
2026-05-05 20:15 24.35871 55.87770 20081 ft 414 kts 41°
2026-05-05 20:15 24.37995 55.89885 19504 ft 409 kts 41°
2026-05-05 20:15 24.39387 55.91273 19118 ft 407 kts 41°
2026-05-05 20:16 24.41480 55.93359 18536 ft 403 kts 41°
2026-05-05 20:16 24.43551 55.95424 17929 ft 400 kts 41°
2026-05-05 20:16 24.45597 55.97465 17318 ft 395 kts 41°
2026-05-05 20:16 24.47613 55.99477 16760 ft 389 kts 41°
2026-05-05 20:17 24.49599 56.01461 16201 ft 384 kts 41°
2026-05-05 20:17 24.51566 56.03426 15665 ft 379 kts 41°
2026-05-05 20:17 24.53510 56.05370 15125 ft 375 kts 41°
2026-05-05 20:17 24.55406 56.07267 14620 ft 371 kts 41°
2026-05-05 20:18 24.57308 56.09176 14139 ft 368 kts 41°
2026-05-05 20:18 24.59260 56.10981 13790 ft 366 kts 33°
2026-05-05 20:18 24.61527 56.12256 13257 ft 365 kts 19°
2026-05-05 20:18 24.63970 56.12895 12749 ft 359 kts
2026-05-05 20:19 24.66431 56.13315 12250 ft 355 kts
2026-05-05 20:19 24.68865 56.13755 11738 ft 351 kts
2026-05-05 20:19 24.71237 56.14193 11253 ft 348 kts
2026-05-05 20:19 24.73619 56.14634 10746 ft 345 kts
2026-05-05 20:20 24.75979 56.15070 10349 ft 337 kts
2026-05-05 20:20 24.78229 56.15387 10155 ft 316 kts 359°
2026-05-05 20:20 24.80357 56.15103 9974 ft 303 kts 343°
2026-05-05 20:20 24.82321 56.14248 9918 ft 304 kts 334°
2026-05-05 20:21 24.84243 56.13282 9778 ft 303 kts 335°
2026-05-05 20:21 24.86153 56.12346 9491 ft 305 kts 335°
2026-05-05 20:21 24.88097 56.11396 9162 ft 302 kts 335°
2026-05-05 20:21 24.90007 56.10461 8843 ft 297 kts 335°
2026-05-05 20:22 24.91880 56.09542 8536 ft 293 kts 335°
2026-05-05 20:22 24.93732 56.08629 8221 ft 289 kts 335°
2026-05-05 20:22 24.95558 56.07727 7900 ft 285 kts 333°
2026-05-05 20:22 24.97121 56.06476 7578 ft 279 kts 309°
2026-05-05 20:23 24.98048 56.04642 7288 ft 273 kts 287°
2026-05-05 20:23 24.98604 56.02653 6987 ft 270 kts 286°
2026-05-05 20:23 24.99179 56.00694 6686 ft 268 kts 287°
2026-05-05 20:23 24.99760 55.98754 6379 ft 266 kts 287°
2026-05-05 20:24 25.00340 55.96817 6073 ft 264 kts 287°
2026-05-05 20:24 25.00915 55.94898 5762 ft 263 kts 287°
2026-05-05 20:24 25.01484 55.92989 5464 ft 261 kts 287°
2026-05-05 20:24 25.02048 55.91094 5165 ft 259 kts 287°
2026-05-05 20:25 25.02601 55.89232 4874 ft 258 kts 288°
2026-05-05 20:25 25.03158 55.87353 4556 ft 257 kts 288°
2026-05-05 20:25 25.03714 55.85481 4243 ft 257 kts 288°
2026-05-05 20:25 25.04271 55.83612 3993 ft 257 kts 288°
2026-05-05 20:26 25.04848 55.81676 4038 ft 272 kts 288°
2026-05-05 20:26 25.05445 55.79671 4038 ft 277 kts 288°
2026-05-05 20:26 25.06045 55.77649 4028 ft 276 kts 288°
2026-05-05 20:26 25.06637 55.75643 4028 ft 274 kts 289°
2026-05-05 20:27 25.07232 55.73636 4027 ft 275 kts 289°
2026-05-05 20:27 25.07825 55.71634 4028 ft 274 kts 289°
2026-05-05 20:27 25.08405 55.69672 4025 ft 261 kts 289°
2026-05-05 20:27 25.08950 55.67829 3927 ft 251 kts 289°
2026-05-05 20:28 25.09482 55.66031 3844 ft 241 kts 289°
2026-05-05 20:28 25.10015 55.64318 3759 ft 231 kts 294°
2026-05-05 20:28 25.10726 55.62766 3694 ft 222 kts 301°
2026-05-05 20:28 25.11508 55.61326 3603 ft 215 kts 302°
2026-05-05 20:29 25.12282 55.59929 3515 ft 213 kts 302°
2026-05-05 20:29 25.13047 55.58547 3514 ft 214 kts 302°
2026-05-05 20:29 25.13827 55.57140 3470 ft 216 kts 302°
2026-05-05 20:29 25.14618 55.55711 3249 ft 218 kts 302°
2026-05-05 20:30 25.15403 55.54292 2948 ft 211 kts 302°
2026-05-05 20:30 25.16142 55.52960 2667 ft 198 kts 302°
2026-05-05 20:30 25.16848 55.51683 2411 ft 193 kts 302°
2026-05-05 20:30 25.17547 55.50423 2182 ft 193 kts 302°
2026-05-05 20:31 25.18252 55.49150 1931 ft 195 kts 302°
2026-05-05 20:31 25.18961 55.47868 1679 ft 196 kts 302°
2026-05-05 20:31 25.19673 55.46583 1427 ft 195 kts 302°
2026-05-05 20:31 25.20376 55.45314 1185 ft 192 kts 302°
2026-05-05 20:32 25.21056 55.44083 952 ft 189 kts 302°
2026-05-05 20:32 25.21732 55.42862 745 ft 181 kts 302°
2026-05-05 20:32 25.22364 55.41719 530 ft 163 kts 302°
2026-05-05 20:32 25.22930 55.40696 318 ft 151 kts 302°
2026-05-05 20:33 25.23469 55.39719 115 ft 146 kts 302°
2026-05-05 20:33 25.23982 55.38790 29 ft 124 kts 300°
2026-05-05 20:33 25.24316 55.38181 32 ft 70 kts 301°
2026-05-05 20:33 25.24530 55.37790 28 ft 52 kts 300°
2026-05-05 20:34 25.24610 55.37499 27 ft 31 kts 273°
2026-05-05 20:34 25.24630 55.37265 27 ft 30 kts 290°
2026-05-05 20:34 25.24665 55.37188 27 ft 5 kts 301°
2026-05-05 20:34 25.24694 55.37136 27 ft 11 kts 301°
2026-05-05 20:35 25.24742 55.37050 27 ft 15 kts 303°
2026-05-05 20:35 25.24806 55.36937 27 ft 19 kts 300°
2026-05-05 20:35 25.24860 55.36796 27 ft 21 kts 283°
2026-05-05 20:35 25.24910 55.36635 26 ft 23 kts 300°
2026-05-05 20:36 25.24998 55.36479 26 ft 25 kts 301°
2026-05-05 20:36 25.25077 55.36338 26 ft 20 kts 303°
2026-05-05 20:36 25.25128 55.36248 27 ft 8 kts 301°
2026-05-05 20:36 25.25162 55.36176 27 ft 10 kts 269°
2026-05-05 20:37 25.25114 55.36122 26 ft 10 kts 210°
2026-05-05 20:37 25.25043 55.36075 26 ft 12 kts 212°
2026-05-05 20:37 25.25022 55.36060 31 ft 2 kts 211°
2026-05-05 20:37 25.25018 55.36058 31 ft 0 kts 211°